IRIDIUM 90 [S]

Last updated on Thu Nov 16 2017 00:18:57 GMT+0000 (Greenwich Mean Time)

1 27373U 02005B 17319.43575193 .00000018 00000-0 -72534-6 0 9994 2 27373 86.4438 286.8247 0001990 83.2506 276.8921 14.42943619833166
UTC large
Height (km)
Speed (km/s)
/
Latitude / Longitude
Inclination (degrees)
Orbital Period (minutes)
Azimuth
Elevation
Range (km)
Doppler Factor

Next 0 passes for location: London (51.5072 / 0.1276)

Sorry there are no passes over London.